User: anonymous   Login
Location: Unspecified
(0.0000°N, 0.0000°E)
Time: 10:46:20
(UTC+00:00)
Language:

MOZHAYETS 4 - Orbit

View from above orbital plane
View from above orbital plane
View from above satellite
View from above satellite

Ground track
Ground track

The orbit data is extracted from the following two-line orbital elements,

1 27939U 03042A   19295.08917571  .00000030  00000-0  14007-4 0  9992
2 27939  98.0588  68.5934 0013613  35.2691 324.9393 14.66810191858927
Epoch (UTC): 22 October 2019 02:08:24
Eccentricity: 0.0013613
inclination: 98.0588°
perigee height: 661 km
apogee height: 681 km
right ascension of ascending node: 68.5934°
argument of perigee: 35.2691°
revolutions per day: 14.66810191
mean anomaly at epoch: 324.9393°
orbit number at epoch: 85892

The dashed part of the orbit path shows where the satellite is in the earth's shadow,  

DLR